Theta_e
317 323 325 329 331 330 335 339 340 346 349 342 337 338 342 341 342 341 337 324 322 328 334 335 333 327 323 322 320 318 318 317 316 317 320 320 321 323 325 327 327 329 330 330 330 332 334 336 336
322 323 326 325 329 337 337 338 341 341 343 341 339 340 341 341 340 338 333 323 323 328 332 334 333 326 323 322 321 320 320 319 318 320 321 322 323 325 327 328 329 330 330 330 331 333 334 336 336
321 324 325 321 327 335 340 339 339 340 345 345 347 345 344 339 338 335 330 325 324 330 332 333 332 326 323 322 322 321 321 321 321 321 322 323 324 326 327 328 329 330 331 332 332 333 334 335 336
321 324 321 320 324 329 340 340 338 338 343 343 344 342 343 342 335 335 333 325 325 331 333 333 331 327 323 323 322 322 322 322 323 323 323 323 324 325 326 327 329 330 331 331 331 332 332 333 335
322 320 316 319 321 321 327 339 339 336 336 339 342 343 341 338 336 336 333 324 326 331 333 334 331 327 324 323 323 323 323 323 323 323 323 323 324 324 325 326 326 328 329 329 329 329 330 331 333
322 318 317 320 321 320 334 338 337 335 334 337 341 340 341 339 340 336 326 323 327 329 332 333 330 328 325 324 323 323 323 323 323 323 323 323 324 324 325 325 324 324 325 325 326 326 327 328 329
318 314 319 320 320 326 336 337 336 333 333 333 338 338 342 343 342 333 323 322 327 329 331 330 328 327 326 324 324 324 323 323 323 323 323 323 324 324 324 324 324 323 323 324 325 325 326 327 327
322 314 320 319 323 334 335 337 336 335 333 334 338 338 341 342 337 330 323 322 326 327 329 329 327 326 325 324 324 324 324 324 324 324 324 323 323 324 324 324 324 324 324 325 329 329 331 334 335
320 316 318 321 323 324 336 336 336 336 337 333 334 338 336 337 333 329 324 322 324 326 326 326 326 325 325 324 323 324 324 324 324 324 324 324 323 323 323 324 324 323 323 323 327 336 338 338 339
317 316 319 319 321 321 332 335 337 336 335 333 334 337 337 336 335 331 326 323 320 321 321 322 323 323 323 323 323 323 323 323 324 324 323 324 324 324 323 323 324 327 329 335 326 324 326 328 335
316 317 317 319 321 320 326 335 337 335 333 333 333 338 337 337 336 334 326 325 328 324 322 321 321 322 322 321 322 322 322 322 322 323 323 323 323 323 323 328 328 333 335 339 339 336 339 339 340
318 317 318 318 319 319 324 333 336 336 334 334 333 339 338 337 336 336 335 331 330 331 330 327 321 321 321 321 321 321 321 321 321 321 321 322 322 322 323 326 337 338 339 338 339 340 340 340 341
315 316 317 319 318 319 319 326 332 335 336 335 334 337 339 339 338 336 336 336 336 336 336 333 326 322 321 322 321 321 328 335 328 323 325 323 322 330 326 331 337 339 340 341 340 339 339 339 338
316 316 318 319 319 318 317 321 331 327 332 336 334 336 339 339 339 338 337 337 337 337 339 338 333 329 323 325 325 325 340 341 331 340 340 339 340 341 339 333 335 338 339 339 339 338 337 337 338
317 317 316 317 318 318 317 320 330 328 328 336 335 333 339 340 339 339 339 337 337 337 337 339 338 338 330 334 332 330 341 343 341 342 342 342 342 342 341 340 337 339 339 339 339 339 338 337 337
317 314 316 316 318 318 318 316 317 328 323 335 336 333 338 339 340 339 339 338 338 337 337 338 340 338 338 340 339 338 341 343 343 343 344 343 342 342 341 341 341 340 339 340 341 341 341 340 338
310 315 316 317 317 317 318 317 317 320 320 332 336 337 333 334 340 340 339 339 338 338 338 338 340 340 340 341 342 341 342 343 344 344 345 344 344 345 345 344 341 341 341 342 342 342 341 340 339
314 316 316 317 318 317 317 316 315 319 320 323 335 338 339 337 334 339 340 340 339 340 342 340 340 341 341 341 342 341 343 345 347 345 346 346 344 343 345 345 343 341 342 339 343 342 342 340 340
316 317 317 316 317 319 317 316 316 318 320 326 330 337 340 342 341 341 342 343 343 343 343 342 341 340 342 342 342 342 343 347 347 346 346 346 345 344 344 344 343 342 340 342 340 340 338 338 337
316 316 315 315 316 316 316 316 317 315 322 331 333 339 339 342 343 344 344 343 342 343 343 342 340 339 342 343 343 343 346 348 347 346 346 346 345 344 343 344 343 343 342 339 339 337 332 331 330
315 316 315 316 316 317 317 316 317 317 319 323 339 341 337 339 341 343 343 342 343 342 342 340 341 342 343 343 343 344 348 347 345 345 346 346 343 342 342 342 341 340 338 333 330 324 321 320 321
316 314 315 316 316 317 317 317 316 317 319 333 342 346 345 344 344 346 347 345 345 344 342 342 343 344 344 343 344 345 347 348 344 346 346 345 344 342 340 338 334 327 322 316 313 311 311 312 312
316 316 316 317 316 317 317 316 317 318 319 322 336 345 347 347 348 348 350 350 349 348 347 347 347 348 349 348 346 349 348 344 343 343 343 342 340 337 336 323 318 313 312 311 310 310 310 311 312
318 320 317 313 312 316 317 316 317 317 319 319 323 339 344 348 350 350 351 352 351 350 350 350 351 351 351 351 351 350 348 345 341 341 341 336 330 321 315 312 312 310 308 307 307 306 305 306 309
319 317 319 319 318 320 317 315 317 318 316 318 318 325 336 344 349 350 351 351 352 352 352 351 350 350 348 344 343 343 344 344 340 340 333 322 315 314 313 311 310 310 310 308 306 305 304 304 305
316 316 317 321 320 320 317 318 319 317 319 320 320 323 328 339 343 349 350 351 350 349 348 347 346 345 344 343 343 344 344 343 339 331 322 316 314 312 311 312 312 311 309 305 304 303 303 303 303
320 318 316 318 318 318 319 318 317 317 318 318 319 321 324 329 336 340 346 348 348 345 344 344 342 342 341 340 340 339 338 336 329 322 317 313 312 312 312 312 312 311 309 306 303 303 302 302 302
319 318 321 315 322 323 320 318 319 320 318 317 320 323 324 328 335 340 340 339 341 340 338 338 339 338 336 329 327 326 326 324 322 319 314 312 312 312 312 312 312 311 311 308 304 302 302 301 301
313 315 315 317 317 324 326 324 315 318 318 318 317 323 327 333 338 339 337 337 338 336 335 336 332 327 323 322 321 319 319 320 319 315 313 312 312 312 312 312 312 312 311 309 305 302 302 301 301
312 310 310 315 318 318 317 319 320 323 325 329 330 329 334 337 339 338 335 339 335 331 326 323 322 321 320 319 320 320 317 318 316 314 313 312 312 312 312 312 312 312 312 309 305 302 301 301 300
Wind_Speed
12 9 4 3 4 5 3 6 4 4 1 1 22 11 9 5 4 4 10 23 20 23 23 20 15 12 12 12 13 14 14 14 14 14 14 14 15 16 16 16 16 16 15 15 14 13 13 14 14
14 8 2 2 4 3 4 4 7 4 5 15 15 9 4 3 4 7 24 23 24 23 22 20 17 14 13 13 13 14 14 14 14 14 14 14 15 15 15 15 14 14 14 13 13 12 11 11 12
11 3 1 4 3 4 5 6 6 5 10 4 5 5 3 1 7 22 24 22 26 25 23 21 18 16 14 13 14 14 14 14 14 13 13 13 14 14 14 13 13 12 12 12 11 10 8 8 8
7 2 4 4 2 4 4 5 4 3 9 11 6 4 6 4 20 14 21 22 25 25 23 20 18 16 14 13 13 13 13 13 13 12 13 13 13 13 12 12 12 11 10 9 8 7 6 5 5
5 3 4 3 4 5 3 3 11 3 4 2 1 3 5 15 11 15 17 23 25 26 23 21 19 17 15 13 13 12 12 12 11 11 11 12 12 12 11 11 11 10 9 8 6 4 3 3 4
2 3 4 1 4 4 5 8 1 3 2 1 5 3 3 11 10 15 18 22 23 24 24 21 19 16 15 13 13 12 11 11 10 10 10 10 10 11 10 10 10 9 8 7 6 4 2 2 2
5 4 2 3 4 2 3 4 2 2 1 2 3 3 4 12 14 17 19 21 22 23 22 20 19 18 16 15 13 12 11 10 9 9 9 9 9 9 9 9 9 8 8 8 6 5 2 1 2
3 4 1 2 3 3 3 2 2 4 2 4 6 6 7 22 23 22 21 20 22 22 21 20 19 18 17 15 14 12 11 10 9 8 8 7 7 7 7 7 7 7 6 6 5 3 2 1 2
4 4 1 3 4 4 4 4 4 3 3 1 3 7 18 26 28 26 24 23 24 23 22 21 20 19 17 15 14 13 12 11 10 8 7 6 6 6 6 5 6 5 5 4 4 3 1 2 4
5 4 7 3 3 4 4 7 5 1 1 6 6 13 26 28 25 25 29 26 26 24 23 21 21 20 18 17 15 13 12 11 9 8 7 6 6 6 6 6 6 5 3 2 2 4 6 6 7
5 6 5 3 6 5 3 3 4 5 5 15 16 22 33 29 28 26 25 26 23 22 22 22 21 20 19 17 16 14 12 11 9 8 8 7 7 7 6 5 5 5 4 2 2 4 5 7 9
4 7 5 1 2 4 2 2 5 12 8 11 12 23 33 31 30 29 26 26 25 23 20 21 22 19 18 16 15 13 12 10 9 8 7 8 7 8 8 8 6 6 6 6 5 7 8 9 11
3 4 5 7 10 12 9 13 7 14 19 2 16 23 34 32 30 29 28 25 25 24 20 19 20 20 17 15 14 13 10 7 7 7 8 7 6 5 8 7 7 7 7 9 10 10 12 14 15
4 4 8 6 8 7 8 2 11 21 22 18 17 24 31 35 33 31 30 29 29 26 23 20 19 17 18 16 15 14 11 6 7 6 5 4 4 5 5 6 8 9 11 10 11 13 15 16 18
2 4 5 4 4 5 8 1 8 24 13 19 22 27 29 32 33 34 29 31 31 28 24 24 22 19 21 17 15 16 12 9 8 8 7 8 8 9 10 11 12 13 12 12 14 16 18 19 20
1 4 1 5 1 3 11 7 13 26 13 22 19 29 31 32 35 34 34 33 32 31 30 26 25 25 22 17 16 17 15 15 14 13 14 15 14 15 17 17 16 16 14 15 16 20 21 22 22
7 2 3 6 3 1 4 6 3 9 15 25 24 30 35 35 37 38 37 36 35 33 32 32 29 29 25 20 16 17 17 17 18 17 15 16 13 15 17 17 19 19 17 20 21 20 19 20 21
3 1 3 4 3 2 3 8 9 17 16 25 31 31 33 36 39 40 39 38 39 37 34 35 32 31 27 23 21 22 20 21 23 17 17 15 15 17 19 22 20 17 17 20 19 15 17 18 19
2 3 6 4 6 4 8 6 12 15 17 18 31 36 37 36 37 37 38 39 39 39 37 35 35 31 28 27 26 26 24 20 13 16 17 19 19 18 20 17 12 15 15 13 18 17 17 17 19
2 3 7 5 4 6 9 11 15 7 12 30 33 36 41 41 40 38 37 36 38 37 33 32 32 27 30 29 28 27 22 19 17 17 17 17 15 15 15 10 10 11 14 12 19 17 12 13 13
2 4 4 8 4 4 5 7 8 2 6 15 21 31 39 47 45 42 36 35 37 35 33 32 30 29 30 31 31 27 24 21 18 16 14 14 11 8 9 8 9 11 12 10 10 8 8 8 9
4 7 9 7 3 3 3 5 6 5 6 6 14 22 34 40 39 38 33 32 32 32 30 31 31 30 31 30 30 27 27 25 19 12 10 9 7 7 8 9 6 3 3 3 4 6 6 7 7
9 6 7 5 4 1 2 1 7 1 5 7 12 28 33 38 40 39 38 36 31 30 31 30 28 28 28 29 29 28 24 21 17 11 11 10 9 7 8 3 2 2 4 5 5 5 6 7 7
4 1 4 5 3 2 7 8 5 5 7 4 9 29 36 38 40 38 38 34 34 33 32 31 29 29 27 26 24 23 22 22 20 17 16 12 10 11 9 7 5 4 5 5 6 7 6 6 6
3 5 4 4 3 7 5 2 7 6 9 9 9 28 38 44 46 43 42 40 38 37 34 33 29 30 29 26 23 20 17 19 17 17 14 16 16 13 10 8 6 4 5 7 8 8 8 8 7
6 9 5 6 4 7 4 6 6 11 20 19 21 22 26 36 48 52 49 47 42 37 32 29 28 27 27 25 21 19 18 18 17 16 17 17 15 13 11 7 3 4 7 9 9 9 10 10 9
2 5 7 4 1 1 5 7 7 8 10 13 21 19 24 30 39 50 54 48 43 34 29 26 25 26 25 21 21 21 20 21 20 20 18 18 17 14 9 3 2 5 8 9 10 9 8 8 9
4 3 3 1 4 9 5 5 6 3 10 10 8 19 27 30 33 36 35 39 35 30 26 24 22 23 21 20 19 19 19 18 19 19 20 18 16 11 7 3 1 4 8 11 12 12 12 11 11
9 6 6 4 4 7 12 7 7 9 7 9 10 17 22 25 23 26 31 31 32 29 26 24 21 20 19 16 20 21 21 18 18 20 19 17 12 8 5 3 3 6 9 11 13 14 13 14 14
4 4 5 4 8 4 3 6 5 9 13 21 23 18 15 20 25 30 32 35 35 32 28 24 21 19 16 18 19 21 19 21 22 21 19 15 11 8 6 5 5 7 10 14 15 15 15 17 17
Wind_Direction
355 12 335 118 52 68 309 280 341 330 53 156 161 173 188 154 170 204 160 162 163 165 162 158 155 158 156 143 138 134 131 127 124 121 116 113 113 111 109 107 103 99 97 98 96 93 89 83 76
351 4 165 118 83 71 267 267 272 239 257 129 150 140 138 171 191 160 153 160 163 166 163 159 157 163 160 148 140 134 131 127 124 121 119 118 116 112 110 107 103 101 101 101 97 93 88 83 77
353 21 272 96 101 168 209 216 236 271 212 200 129 107 83 11 160 145 155 162 166 168 165 161 162 167 163 155 147 140 132 128 127 127 124 121 116 113 110 106 104 104 104 100 97 94 85 77 76
343 121 53 74 192 253 223 207 187 339 264 249 96 70 97 36 136 147 158 167 168 170 166 164 166 170 168 160 150 142 139 136 135 134 130 126 117 113 111 109 107 107 107 101 95 94 83 63 60
342 88 60 72 292 269 260 188 180 215 321 333 323 170 74 135 148 156 167 169 172 171 168 171 172 174 171 164 155 152 147 143 141 135 129 125 122 119 117 113 111 112 112 106 97 80 64 48 20
24 78 58 179 244 287 301 190 180 300 305 19 95 100 129 170 160 168 168 173 174 173 172 175 176 177 175 170 164 160 155 154 149 141 136 132 130 128 125 119 114 110 107 101 98 86 61 34 354
105 79 194 254 301 343 283 172 241 269 333 30 154 82 140 171 167 164 170 173 178 178 176 179 182 181 181 178 173 169 167 164 161 156 149 146 144 140 133 125 117 106 101 95 95 91 75 50 340
96 91 56 297 24 338 294 199 272 236 177 141 152 171 183 160 162 164 173 177 182 183 181 186 188 189 188 184 182 180 179 177 174 173 167 160 160 155 147 136 127 122 118 114 110 104 87 50 357
125 60 292 248 124 274 264 196 220 254 282 220 197 182 166 159 163 168 173 180 187 189 189 190 194 195 195 191 192 191 190 189 189 185 187 181 180 182 176 170 159 151 147 148 163 169 206 303 322
108 122 222 213 188 232 218 204 163 246 334 234 186 183 170 166 167 173 178 180 190 192 192 196 197 199 199 199 199 198 202 201 201 202 208 208 209 210 211 209 194 187 187 156 212 241 261 275 292
159 178 215 257 252 298 278 215 154 158 247 215 193 174 174 175 176 178 183 183 185 192 197 199 199 201 203 203 203 204 210 211 213 217 222 229 234 239 239 231 219 240 214 227 280 273 297 294 299
149 235 221 261 154 320 247 234 179 208 251 235 217 183 179 184 187 188 190 194 193 194 195 201 203 201 208 208 206 208 215 224 227 232 238 246 254 264 266 251 251 261 267 265 290 274 290 298 298
176 237 234 274 268 277 264 237 218 256 234 104 203 190 191 194 198 199 200 203 202 199 200 203 206 205 203 215 212 205 206 231 234 237 246 251 257 270 269 261 266 279 287 286 285 283 284 288 293
213 252 285 277 271 247 204 288 175 250 253 218 193 205 202 203 207 208 208 211 215 209 205 211 204 204 203 211 216 203 203 213 212 210 226 234 239 264 286 267 260 275 282 286 287 289 292 292 292
215 301 331 232 195 248 190 116 224 222 257 200 190 210 213 216 214 219 222 218 220 220 216 219 216 203 208 202 208 208 208 206 209 224 241 254 258 269 261 263 262 261 278 293 294 294 293 290 291
65 53 78 271 261 157 155 247 254 227 254 204 196 201 218 222 224 229 231 232 229 227 227 223 224 217 210 201 205 212 218 223 220 222 234 244 253 264 269 267 278 280 283 288 294 298 296 292 292
5 232 213 308 296 311 160 247 246 234 230 220 196 198 212 225 228 230 234 238 238 234 228 223 224 224 215 203 209 219 227 237 242 239 245 246 252 267 275 272 267 269 277 290 288 285 290 293 293
237 279 285 254 297 52 275 256 275 276 239 224 222 207 206 216 230 230 233 236 242 243 236 226 225 225 218 212 211 222 230 236 248 250 243 244 263 271 277 281 266 264 271 280 281 281 286 294 300
191 202 246 253 262 321 267 275 279 286 229 233 219 221 219 218 225 230 235 237 239 240 234 227 224 225 217 216 215 223 232 235 248 257 258 257 260 263 274 286 299 289 285 302 318 319 325 317 318
219 298 278 259 235 171 283 283 278 183 219 217 216 210 220 223 226 230 231 236 236 236 228 220 223 220 218 221 222 227 226 227 244 250 255 264 271 274 278 284 288 298 306 308 305 311 333 328 327
245 221 251 243 332 265 285 295 301 308 280 270 229 222 216 220 225 226 224 222 223 221 220 213 213 215 216 220 219 218 219 230 242 249 251 270 275 283 299 294 294 295 296 314 318 330 335 339 350
269 220 242 269 71 268 128 279 305 312 281 249 206 216 220 219 220 218 210 211 212 213 211 211 213 214 217 217 216 225 229 233 238 235 241 241 240 256 275 277 282 301 344 5 19 22 13 9 7
230 192 217 245 226 71 260 170 265 2 264 250 226 214 219 217 213 210 207 207 204 203 201 204 206 207 213 217 220 222 228 233 235 223 214 208 207 220 238 197 133 95 66 44 32 14 2 353 353
248 350 23 37 92 246 225 178 245 228 212 238 220 221 221 218 212 213 209 206 204 202 200 201 206 206 205 207 210 215 220 227 211 216 197 193 178 166 156 143 126 91 62 42 20 9 355 349 346
171 66 314 319 339 238 244 166 228 251 238 224 218 224 226 220 217 216 215 211 210 208 204 204 205 204 203 205 205 206 210 204 217 199 196 171 160 159 154 147 125 83 29 14 7 1 360 360 357
177 161 170 249 228 264 125 233 251 220 242 247 253 251 232 221 222 221 219 216 213 210 204 202 202 204 200 199 201 196 196 194 185 176 166 163 162 156 149 139 95 35 16 3 0 359 356 354 345
192 174 208 214 183 307 236 279 304 246 249 239 237 234 231 227 227 226 221 217 213 206 202 204 202 202 191 184 184 182 185 181 175 172 173 169 164 160 153 138 41 11 2 356 351 347 345 342 332
334 230 253 22 220 252 247 254 230 279 251 261 252 235 237 231 224 216 203 209 204 196 195 189 187 188 181 178 177 173 173 176 178 178 172 171 168 165 164 171 289 339 349 347 342 340 336 332 326
339 3 352 283 141 247 269 266 223 226 270 286 265 247 245 228 205 189 193 197 186 183 179 175 181 184 179 182 188 178 172 182 186 179 178 175 179 180 203 223 280 320 328 333 336 331 328 324 320
52 74 36 54 320 305 243 261 11 27 2 354 328 281 210 199 188 188 187 183 177 172 170 173 179 189 194 197 191 185 181 189 184 188 186 181 190 204 233 265 287 304 319 330 332 328 326 321 316